0 HST
1 20580U 90037B 26208.10248366 .00006351 00000-0 19736-3 0 9996
2 20580 28.4721 167.6751 0001684 226.7960 133.2495 15.31168988794697
0 ISS (ZARYA)
1 25544U 98067A 26208.18492855 .00011370 00000-0 21265-3 0 9991
2 25544 51.6319 102.1568 0006995 342.0319 18.0422 15.49199954577957
0 CXO
1 25867U 99040B 26209.04610948 .00000804 00000-0 00000-0 0 9993
2 25867 56.7072 115.6151 7770389 309.8621 0.6215 0.37793771 17474